Location: Kellogg
(38.0159°N, 90.0546°W)
Time: 03:27:54
(UTC+00:00)

SR - Pass Details

Date: 15 September 2024
Orbit: 577 x 855 km, 66.7° (Epoch: 10 October)

Event Time Altitude Azimuth Distance (km) Brightness Sun altitude
Rises 05:31:35 0° 313° (NW) 3,006 - -48.8°
Reaches altitude 10° 05:34:25 10° 295° (WNW) 2,141 - -48.9°
Maximum altitude 05:37:45 19° 252° (WSW) 1,686 - -49.0°
Drops below altitude 10° 05:41:15 10° 209° (SSW) 2,260 - -49.0°
Sets 05:44:22 0° 191° (SSW) 3,236 - -49.1°
